BSAT-4B

Last updated on Thu Sep 24 2026 00:03:20 GMT+0000 (Coordinated Universal Time)

1 46112U 20056A 26266.52885866 -.00000352 00000+0 00000+0 0 9996 2 46112 0.0240 145.4564 0004155 10.0487 147.1081 1.00273287 22372
UTC large
Height (km)
Speed (km/s)
/
Latitude / Longitude
Inclination (degrees)
Orbital Period (minutes)
Azimuth
Elevation
Range (km)
Doppler Factor

Next 0 passes for location: London (51.5072 / 0.1276)

No passes found over London.
BSAT-4B